Content
SEND FEEDBACK

Daily
Averages
Monthly
Summary
Canada

BEDFORD, QUEBEC


Home > North America > Canada > Quebec
Elevation: 174 feet     Latitude: 45 28N     Longitude: 073 45W

WEATHER
 
SELECT A DAY
Number of Records: 198,587;   Date Range: 1/1/95 - 8/31/14
 
SHARE

PRINT THIS DATA

[ ← Previous Day ]
WEATHER ALMANAC - APRIL 27, 2013
[ Next Day → ]
[ °C ]   °F
Weather ElementAverageHighLow
Temperature49.2 °F59 °F (2:00 pm)37.4 °F (5:00 am)
Dewpoint31.8 °F35.6 °F (3:00 am)23 °F (5:00 pm)
Humidity54.1 %93 % (5:00 am)23 % (2:00 pm)
Barometer30.40 in30.46 in (1:00 am)30.30 in (7:00 pm)
Wind Speed5.7 mph12.7 mph (4:00 pm)
Weather ElementAverage
Visibility21 mi
Wind DirectionSSW (202.6 °)

Weather ElementTotal
Precipitation---
Heating Degree Days16.8 (Base 65)
Averaged from 27 records on April 27, 2013
WEATHER CONDITIONS BREAKOUT
WIND DIRECTION BREAKOUT
WEATHER BY HOUR - APRIL 27, 2013
[ °C ]   °F
Local TimeTemperatureDewpointHumidityBarometerVisibilityWind DirectionWind SpeedGust SpeedPrecipitationEventsConditions
1:00 AM39.2 °F33.8 °F81 %30.46 in15.0 miSW (220°)3.5 mphClear
2:00 AM41.0 °F34.0 °F66 %30.45 in15.0 miSSE (150°)1.2 mphClear
2:00 AM41.0 °F33.8 °F76 %30.45 in15.0 miCalmPartly Cloudy
3:00 AM41.0 °F35.6 °F81 %30.45 in15.0 miSW (220°)2.3 mphPartly Cloudy
4:00 AM39.2 °F33.8 °F81 %30.44 in15.0 miSSW (210°)4.6 mphPartly Cloudy
5:00 AM37.4 °F35.6 °F93 %30.44 in15.0 miSW (220°)3.5 mphPartly Cloudy
6:00 AM37.4 °F33.8 °F87 %30.44 in30.0 miWSW (240°)3.5 mphScattered Clouds
7:00 AM39.2 °F33.8 °F81 %30.45 in30.0 miWSW (240°)2.3 mphOvercast
8:00 AM43.0 °F35.0 °F65 %30.45 in28.0 miWest (270°)3.5 mphOvercast
8:00 AM42.8 °F35.6 °F76 %30.45 in30.0 miWest (260°)2.3 mphOvercast
9:00 AM46.4 °F33.8 °F62 %30.45 in15.0 miVariable2.3 mphMostly Cloudy
10:00 AM50.0 °F35.6 °F58 %30.45 in15.0 miSW (220°)4.6 mphMostly Cloudy
11:00 AM53.6 °F32.0 °F44 %30.45 in15.0 miSouth (180°)6.9 mphOvercast
12:00 PM55.4 °F28.4 °F36 %30.43 in15.0 miSouth (190°)10.4 mphMostly Cloudy
1:00 PM55.4 °F30.2 °F38 %30.41 in15.0 miSouth (190°)10.4 mphMostly Cloudy
2:00 PM58.0 °F31.0 °F23 %30.40 in28.0 miSW (230°)10.4 mphScattered Clouds
2:00 PM59.0 °F30.2 °F34 %30.39 in30.0 miSW (220°)9.2 mphMostly Cloudy
3:00 PM57.2 °F28.4 °F33 %30.37 in30.0 miSSW (200°)9.2 mphPartly Cloudy
4:00 PM59.0 °F26.6 °F29 %30.35 in30.0 miSSW (210°)12.7 mphPartly Cloudy
5:00 PM59.0 °F23.0 °F25 %30.32 in30.0 miWest (260°)5.8 mphClear
6:00 PM59.0 °F24.8 °F27 %30.31 in30.0 miSSW (210°)10.4 mphClear
7:00 PM57.2 °F26.6 °F31 %30.30 in30.0 miSSW (210°)8.1 mphClear
8:00 PM54.0 °F30.0 °F27 %30.31 in15.0 miSSW (210°)8.1 mphClear
8:00 PM53.6 °F30.2 °F41 %30.31 in15.0 miSSW (210°)6.9 mphClear
9:00 PM51.8 °F33.8 °F50 %30.31 in15.0 miSSW (210°)6.9 mphClear
10:00 PM50.0 °F33.8 °F54 %30.32 in15.0 miWSW (240°)2.3 mphClear
11:00 PM48.2 °F35.6 °F62 %30.32 in15.0 miWSW (250°)2.3 mphClear
Hourly data recorded from CYUL, located miles away from Bedford, Quebec







STORIES FROM OUR PARTNERS